When you browse on this site, cookies collect data to enhance your experience and personalize the content and advertising you see.
Visit our Privacy Policy to learn more. By continuing to use the site, you agree to this use of cookies and data.
  • In Czech Republic
  • List of Countries
  • For 7 days
  • Water Temperature
  • Satellite Maps
  • Weather Map
  • Weather Widgets
  • user-avatar
    Login

    Hourly Weather Sinemorec

    Today, 17 January, Thursday

    Time Temperature Precipitation Wind Pressure Humidity
    00:00 +1°C° 0 mm 4 mps 761 mmHg 70%
    01:00 +2°C° 0 mm 3 mps 761 mmHg 70%
    02:00 +2°C° 0 mm 3 mps 761 mmHg 70%
    03:00 +2°C° 0 mm 3 mps 761 mmHg 72%
    04:00 +3°C° 0 mm 2 mps 761 mmHg 73%
    05:00 +3°C° 0 mm 2 mps 762 mmHg 74%
    06:00 +3°C° 0 mm 2 mps 762 mmHg 74%
    07:00 +3°C° 0 mm 2 mps 762 mmHg 74%
    08:00 +4°C° 0 mm 1 mps 762 mmHg 74%
    09:00 +6°C° 0 mm 1 mps 762 mmHg 67%
    10:00 +8°C° 0 mm 1 mps 762 mmHg 61%
    11:00 +9°C° 0 mm 1 mps 762 mmHg 55%
    12:00 +10°C° 0 mm 1 mps 762 mmHg 54%
    13:00 +10°C° 0 mm 2 mps 762 mmHg 52%
    14:00 +12°C° 0 mm 2 mps 762 mmHg 51%
    15:00 +9°C° 0 mm 2 mps 762 mmHg 57%
    16:00 +8°C° 0 mm 2 mps 762 mmHg 63%
    17:00 +7°C° 0 mm 3 mps 761 mmHg 69%
    18:00 +5°C° 0 mm 3 mps 761 mmHg 70%
    19:00 +5°C° 0 mm 3 mps 761 mmHg 72%
    20:00 +5°C° 0 mm 4 mps 761 mmHg 73%
    21:00 +5°C° 0 mm 4 mps 761 mmHg 77%
    22:00 +5°C° 0 mm 4 mps 761 mmHg 80%
    23:00 +5°C° 0 mm 4 mps 761 mmHg 84%

    Tomorrow, 18 January, Friday

    Time Temperature Precipitation Wind Pressure Humidity
    00:00 +5°C° 0 mm 4 mps 761 mmHg 84%
    01:00 +5°C° 0 mm 4 mps 761 mmHg 85%
    02:00 +5°C° 0 mm 4 mps 761 mmHg 85%
    03:00 +5°C° 0 mm 4 mps 761 mmHg 86%
    04:00 +5°C° 0 mm 4 mps 760 mmHg 87%
    05:00 +5°C° 0 mm 4 mps 760 mmHg 87%
    06:00 +5°C° 0 mm 4 mps 760 mmHg 88%
    07:00 +5°C° 0 mm 4 mps 760 mmHg 88%
    08:00 +5°C° 0 mm 4 mps 760 mmHg 89%
    09:00 +7°C° 0 mm 4 mps 760 mmHg 83%
    10:00 +8°C° 0 mm 4 mps 760 mmHg 78%
    11:00 +11°C° 0 mm 4 mps 760 mmHg 72%
    12:00 +10°C° 0 mm 5 mps 760 mmHg 70%
    13:00 +12°C° 0 mm 5 mps 760 mmHg 69%
    14:00 +12°C° 0 mm 5 mps 759 mmHg 67%
    15:00 +12°C° 0 mm 5 mps 759 mmHg 71%
    16:00 +11°C° 0 mm 4 mps 759 mmHg 75%
    17:00 +10°C° 0 mm 4 mps 759 mmHg 79%
    18:00 +10°C° 0 mm 4 mps 759 mmHg 81%
    19:00 +8°C° 0 mm 4 mps 759 mmHg 83%
    20:00 +8°C° 0 mm 4 mps 760 mmHg 85%
    21:00 +8°C° 0 mm 4 mps 760 mmHg 85%
    22:00 +8°C° 0 mm 4 mps 760 mmHg 85%
    23:00 +8°C° 0 mm 4 mps 760 mmHg 85%

    Day after tomorrow, 19 January, Saturday

    Time Temperature Precipitation Wind Pressure Humidity
    00:00 +8°C° 0 mm 4 mps 760 mmHg 85%
    01:00 +8°C° 0 mm 4 mps 760 mmHg 86%
    02:00 +8°C° 0 mm 4 mps 760 mmHg 86%
    03:00 +9°C° 0 mm 3 mps 760 mmHg 86%
    04:00 +9°C° 0 mm 3 mps 760 mmHg 86%
    05:00 +8°C° 0 mm 3 mps 760 mmHg 86%
    06:00 +8°C° 0.2 mm 2 mps 760 mmHg 87%
    07:00 +8°C° 0.2 mm 2 mps 761 mmHg 88%
    08:00 +7°C° 0.2 mm 2 mps 761 mmHg 90%
    09:00 +8°C° 0.2 mm 2 mps 761 mmHg 87%
    10:00 +8°C° 0.2 mm 2 mps 762 mmHg 84%
    11:00 +8°C° 0.2 mm 3 mps 762 mmHg 82%
    12:00 +8°C° 0.1 mm 3 mps 762 mmHg 81%
    13:00 +7°C° 0.1 mm 4 mps 762 mmHg 80%
    14:00 +7°C° 0.1 mm 4 mps 761 mmHg 80%
    15:00 +6°C° 0.1 mm 4 mps 762 mmHg 82%
    16:00 +5°C° 0.1 mm 4 mps 762 mmHg 84%
    17:00 +5°C° 0.1 mm 4 mps 762 mmHg 86%
    18:00 +4°C° 0.6 mm 4 mps 762 mmHg 88%
    19:00 +4°C° 0.6 mm 4 mps 763 mmHg 90%
    20:00 +4°C° 0.6 mm 4 mps 763 mmHg 92%
    21:00 +4°C° 0.7 mm 4 mps 763 mmHg 92%
    22:00 +4°C° 0.7 mm 3 mps 763 mmHg 93%
    23:00 +4°C° 0.7 mm 3 mps 763 mmHg 93%

    20 January, Sunday

    Time Temperature Precipitation Wind Pressure Humidity
    00:00 +5°C° 0.1 mm 3 mps 763 mmHg 93%
    01:00 +5°C° 0.1 mm 3 mps 763 mmHg 93%
    02:00 +5°C° 0.1 mm 3 mps 763 mmHg 94%
    03:00 +5°C° 0.1 mm 3 mps 763 mmHg 94%
    04:00 +5°C° 0.1 mm 3 mps 762 mmHg 94%
    05:00 +5°C° 0.1 mm 3 mps 762 mmHg 95%
    06:00 +5°C° 0.1 mm 3 mps 762 mmHg 95%
    07:00 +5°C° 0.1 mm 3 mps 762 mmHg 95%
    08:00 +6°C° 0.1 mm 4 mps 762 mmHg 96%
    09:00 +6°C° 0.2 mm 4 mps 762 mmHg 95%
    10:00 +7°C° 0.2 mm 4 mps 762 mmHg 95%
    11:00 +7°C° 0.2 mm 4 mps 762 mmHg 94%
    12:00 +8°C° 0.2 mm 4 mps 761 mmHg 93%
    13:00 +9°C° 0.2 mm 3 mps 761 mmHg 92%
    14:00 +9°C° 0.2 mm 3 mps 760 mmHg 91%
    15:00 +9°C° 0 mm 3 mps 760 mmHg 91%
    16:00 +9°C° 0 mm 3 mps 760 mmHg 91%
    17:00 +9°C° 0 mm 3 mps 760 mmHg 91%
    18:00 +9°C° 0.1 mm 3 mps 760 mmHg 92%
    19:00 +8°C° 0.1 mm 3 mps 760 mmHg 92%
    20:00 +8°C° 0.1 mm 3 mps 759 mmHg 93%
    21:00 +8°C° 0.3 mm 2 mps 759 mmHg 92%
    22:00 +8°C° 0.3 mm 2 mps 759 mmHg 92%
    23:00 +8°C° 0.3 mm 2 mps 759 mmHg 91%

    21 January, Monday

    Time Temperature Precipitation Wind Pressure Humidity
    00:00 +8°C° 0.3 mm 2 mps 759 mmHg 91%
    01:00 +9°C° 0.3 mm 3 mps 759 mmHg 91%
    02:00 +9°C° 0.3 mm 3 mps 759 mmHg 90%
    03:00 +9°C° 0.2 mm 3 mps 759 mmHg 92%
    04:00 +8°C° 0.2 mm 2 mps 759 mmHg 93%
    05:00 +8°C° 0.2 mm 2 mps 759 mmHg 94%
    06:00 +8°C° 0.1 mm 3 mps 759 mmHg 94%
    07:00 +8°C° 0.1 mm 3 mps 760 mmHg 93%
    08:00 +7°C° 0.1 mm 3 mps 760 mmHg 93%
    09:00 +8°C° 0 mm 3 mps 761 mmHg 89%
    10:00 +8°C° 0 mm 3 mps 761 mmHg 85%
    11:00 +9°C° 0 mm 2 mps 761 mmHg 81%
    12:00 +9°C° 0 mm 2 mps 761 mmHg 78%
    13:00 +9°C° 0 mm 2 mps 761 mmHg 76%
    14:00 +10°C° 0 mm 2 mps 761 mmHg 73%
    15:00 +9°C° 0 mm 2 mps 762 mmHg 76%
    16:00 +8°C° 0 mm 2 mps 762 mmHg 79%
    17:00 +8°C° 0 mm 2 mps 762 mmHg 82%
    18:00 +7°C° 0 mm 2 mps 762 mmHg 82%
    19:00 +7°C° 0 mm 3 mps 763 mmHg 82%
    20:00 +7°C° 0 mm 3 mps 763 mmHg 83%
    21:00 +7°C° 0 mm 3 mps 763 mmHg 84%
    22:00 +5°C° 0 mm 3 mps 764 mmHg 86%
    23:00 +5°C° 0 mm 3 mps 764 mmHg 87%

    22 January, Tuesday

    Time Temperature Precipitation Wind Pressure Humidity
    00:00 +5°C° 0 mm 3 mps 764 mmHg 88%
    01:00 +5°C° 0 mm 4 mps 763 mmHg 89%
    02:00 +5°C° 0 mm 4 mps 763 mmHg 90%
    03:00 +5°C° 0 mm 4 mps 763 mmHg 90%
    04:00 +5°C° 0 mm 4 mps 763 mmHg 90%
    05:00 +5°C° 0 mm 4 mps 762 mmHg 90%
    06:00 +5°C° 0.1 mm 5 mps 762 mmHg 91%
    07:00 +5°C° 0.1 mm 5 mps 762 mmHg 91%
    08:00 +5°C° 0.1 mm 5 mps 761 mmHg 91%
    09:00 +5°C° 0.1 mm 5 mps 761 mmHg 91%
    10:00 +6°C° 0.1 mm 5 mps 761 mmHg 92%
    11:00 +6°C° 0.1 mm 5 mps 760 mmHg 92%
    12:00 +7°C° 0 mm 5 mps 759 mmHg 90%
    13:00 +8°C° 0 mm 5 mps 759 mmHg 88%
    14:00 +8°C° 0 mm 6 mps 758 mmHg 86%
    15:00 +8°C° 0 mm 5 mps 757 mmHg 86%
    16:00 +8°C° 0 mm 5 mps 757 mmHg 86%
    17:00 +8°C° 0 mm 5 mps 756 mmHg 86%
    18:00 +8°C° 0 mm 5 mps 756 mmHg 85%
    19:00 +8°C° 0 mm 5 mps 755 mmHg 83%
    20:00 +8°C° 0 mm 6 mps 755 mmHg 82%
    21:00 +9°C° 0 mm 6 mps 754 mmHg 81%
    22:00 +9°C° 0 mm 7 mps 754 mmHg 80%
    23:00 +10°C° 0 mm 7 mps 754 mmHg 79%
    Show more